Regional Weather Roundup
Issued by NWS

Home | Current Version | Previous Version | Graphics & Text | Print | Product List | Glossary On
Versions: 1 2 3 4 5 6 7 8 9 10 11 12 13 14 15 16 17 18 19 20 21 22 23 24 25 26 27 28 29 30 31 32 33 34 35 36 37 38 39 40 41 42 43 44 45 46 47 48 49 50
967
ASUS45 KBOU 030807
RWRCO

WEATHER ROUNDUP FOR COLORADO
NATIONAL WEATHER SERVICE DENVER/BOULDER CO
200 AM MDT TUE MAY 03 2016

NOTE: "FAIR" INDICATES FEW OR NO CLOUDS BELOW 12000 FEET WITH NO
SIGNIFICANT WEATHER AND/OR OBSTRUCTIONS TO VISIBILITY.

COZ001>005-013-030-031-030900-
...NORTHWEST COLORADO...

CITY           SKY/WX    TMP DP  RH WIND       PRES   REMARKS
CRAIG          FAIR      29  23  78 CALM      30.23S
HAYDEN         FAIR      36  23  60 E5        30.22S
MEEKER         FAIR      37  27  67 CALM      30.24S
MOUNT WERNER   NOT AVBL
STEAMBOAT SPGS FAIR      35  22  59 CALM      30.24S
WALDEN         FAIR      23  18  80 SE7       30.28S WCI  15
$$

COZ006>008-011-030900-
...WEST CENTRAL VALLEYS...

CITY           SKY/WX    TMP DP  RH WIND       PRES   REMARKS
GRAND JUNCTION FAIR      45  36  70 NE3       30.16F
MONTROSE       FAIR      43  32  65 SE8       30.22S
EAGLE          FAIR      36  28  75 E5        30.25F
RIFLE          FAIR      40  31  70 CALM      30.20S
DELTA          NOT AVBL
NUCLA          NOT AVBL
$$

COZ017>023-064>068-030900-
...SOUTHWEST COLORADO...

CITY           SKY/WX    TMP DP  RH WIND       PRES   REMARKS
DURANGO        FAIR      34  31  88 N5        30.20F WCI  30
CORTEZ         FAIR      35  32  88 CALM      30.20F
PAGOSA SPRINGS FAIR      32  32  99 CALM      30.24F
TELLURIDE      FAIR      32  29  90 SE6       30.31S WCI  26
WOLF CREEK PAS FAIR      23  23 100 N10       30.36F WCI  12
$$

COZ009-010-012-014-032>034-037-058>063-030900-
...CENTRAL COLORADO...

CITY           SKY/WX    TMP DP  RH WIND       PRES   REMARKS
ASPEN          FAIR      31  25  78 S6        30.24F WCI  25
BUENA VISTA    FAIR      37  26  64 W6        30.23S
COPPER MTN     NOT AVBL
BERTHOUD PASS  FAIR      18   9  68 NW28      30.31S HAZE    WCI  -1
COTTONWOOD PAS FAIR      37  21  52 W9        30.27S
GUNNISON       FAIR      34  25  69 N5        30.27F WCI  30
KREMMLING      FAIR      32  23  69 CALM      30.26S
LEADVILLE      FAIR      25  18  74 N7        30.28F WCI  17
MONARCH PASS   FAIR      23  21  93 MISG      30.43F
SALIDA         FAIR      36  27  72 W5        30.29S
SUNLIGHT       FAIR      32  23  69 CALM      30.37F
WILKERSON PASS FAIR      27  19  74 N14G22    30.31F WCI  15
$$

COZ069>075-030900-
...SAN LUIS VALLEY/SANGRE DE CRISTO MOUNTAINS...

CITY           SKY/WX    TMP DP  RH WIND       PRES   REMARKS
ALAMOSA        FAIR      33  31  92 W3        30.20F
LA VETA PASS   FAIR      30  28  93 MISG      30.25F
SAGUACHE       FAIR      37  28  70 N12       30.22F
$$

COZ035-036-038>040-030900-
...NORTHERN COLORADO FRONT RANGE...

CITY           SKY/WX    TMP DP  RH WIND       PRES   REMARKS
DENVER INTL AP FAIR      42  28  57 W6        30.15S
DMNS CITY PARK   N/A     41  31  68 SW3       30.17S
AURORA         FAIR      38  28  65 W3        30.17R
FRONT RANGE AP NOT AVBL
ERIE MUNI ARPT FAIR      36  33  88 CALM      30.16S
BOULDER MUN AP FAIR      43  30  61 S3        30.15F
CENTENNIAL     FAIR      37  29  72 E6        30.16S
BROOMFIELD     FAIR      45  32  61 NW6       30.17S
FORT COLLINS   FAIR      43  27  52 N8        30.16S
LONGMONT       FAIR      39  33  76 CALM      30.17S
$$

COZ041-046-047-076>085-087-088-030900-
...PIKES PEAK/PALMER DIVIDE AND SOUTHERN FOOTHILLS...

CITY           SKY/WX    TMP DP  RH WIND       PRES   REMARKS
COLO. SPRINGS  FAIR      40  24  53 NW5       30.16F
A. F. ACADEMY  FAIR      32  25  74 N7        30.16F WCI  26
SCHRIEVER AFB  NOT AVBL
ELLICOTT       FAIR     N/A N/A N/A CALM      30.14F
FALCON         FAIR      37  24  60 NW7       30.18S
FORT CARSON    FAIR      38  28  67 NW12      30.14F
LIMON          MOCLDY    34  28  79 NW7       30.12S WCI  28
MONUMENT HILL  FAIR      34  25  69 W6        30.19F WCI  29
TRINIDAD       FAIR      38  33  82 SW12      30.13F
$$

COZ042>045-048>051-090-091-030900-
...NORTHEAST COLORADO...

CITY           SKY/WX    TMP DP  RH WIND       PRES   REMARKS
GREELEY ARPT   FAIR      41  30  65 NW10      30.15S
AKRON          CLOUDY    43  34  70 N8        30.09S
BURLINGTON     CLOUDY    45  30  55 NW9G22    30.07F
WRAY           NOT AVBL
STERLING       MOCLDY    45  39  81 NW7       30.05F
HOLYOKE        NOT AVBL
FORT MORGAN    FAIR      44  32  62 N15       30.12R
$$

COZ086-089-092>099-030900-
...SOUTHEAST COLORADO...

CITY           SKY/WX    TMP DP  RH WIND       PRES   REMARKS
PUEBLO         FAIR      41  32  70 CALM      30.12F
LA JUNTA       CLOUDY    47  36  65 W13       30.08F
LAMAR          FAIR      43  37  79 W7        30.05F
SPRINGFIELD      N/A     41  37  86 W5        30.09F
$$




USA.gov is the U.S. government's official web portal to all federal, state and local government web resources and services.